Regional Weather Roundup
Issued by NWS

Home | Current Version | Previous Version | Graphics & Text | Print | Product List | Glossary On
Versions: 1 2 3 4 5 6 7 8 9 10 11 12 13 14 15 16 17 18 19 20 21 22 23 24 25 26 27 28 29 30 31 32 33 34 35 36 37 38 39 40 41 42 43 44 45 46 47 48 49 50
570
ASUS43 KFSD 200910
RWRSD

WEATHER ROUNDUP FOR SOUTH DAKOTA
NATIONAL WEATHER SERVICE SIOUX FALLS SD
400 AM CDT FRI APR 20 2018

NOTE: "FAIR" INDICATES FEW OR NO CLOUDS BELOW 12,000 FEET WITH NO
SIGNIFICANT WEATHER AND/OR OBSTRUCTIONS TO VISIBILITY.


SDZ001>005-009-010-012>017-201000-
NORTHWEST AND NORTH CENTRAL SOUTH DAKOTA

CITY           SKY/WX    TMP DP  RH WIND       PRES   REMARKS
BUFFALO          N/A     39  28  64 E12       30.09F
FAITH            N/A     34  28  79 SE18      30.21F WCI  23
MOBRIDGE       PTCLDY    32  25  75 SE5       30.29F WCI  27
$$

SDZ012>016-024>037-041>051-057-063-072>074-201000-
SOUTHWEST AND SOUTH CENTRAL SOUTH DAKOTA

CITY           SKY/WX    TMP DP  RH WIND       PRES   REMARKS
RAPID CTY ARPT CLOUDY    34  28  79 SE7       30.16F WCI  28
PIERRE         CLOUDY    34  32  92 SE13      30.29F WCI  25
CUSTER         CLOUDY    34  24  67 E5        30.13F WCI  30
ELLSWORTH AFB  CLOUDY    39  30  71 S13       30.15F
PHILIP         MOCLDY    34  29  82 E12       30.23F WCI  25
PINE RIDGE     MOCLDY    44  27  51 E8G18     30.14F
SPEARFISH      FAIR      45  27  49 E10       30.08F
WINNER         FAIR      35  29  78 SE12      30.29S WCI  27
$$

SDZ004>011-016>023-039-040-201000-
NORTHEAST SOUTH DAKOTA

CITY           SKY/WX    TMP DP  RH WIND       PRES   REMARKS
ABERDEEN       PTCLDY    30  26  85 SE5       30.39F WCI  25
WATERTOWN      PTCLDY    30  26  85 SE8       30.39F WCI  22
BROOKINGS      CLOUDY    28  25  88 CALM      30.41F
SISSETON         N/A     31  27  85 SE6       30.40S WCI  25
$$

SDZ017-020-022-023-036>040-048>070-201000-
SOUTHEAST SOUTH DAKOTA

CITY           SKY/WX    TMP DP  RH WIND       PRES   REMARKS
SIOUX FALLS    CLOUDY    30  21  69 E5        30.42F WCI  25
HURON          CLOUDY    33  25  72 SE9       30.38F WCI  25
CHAMBERLAIN    CLOUDY    34  34  99 SE13      30.32S WCI  25
MITCHELL       MOCLDY    32  26  78 SE13      30.38F WCI  22
YANKTON        CLOUDY    31  26  82 E9        30.39F WCI  23
$$

ABBREVIATIONS USED IN REMARKS
   TC - TEMPERATURE IN CELSIUS
  WCI - WIND CHILL INDEX
   HX - HEAT INDEX
  VSB - VISIBILITY





USA.gov is the U.S. government's official web portal to all federal, state and local government web resources and services.